• Processing (Info)

  • MPEC 2014-H29 : 2014 HJ4

    The following Minor Planet Electronic Circular may be linked-to from your own Web pages, but must not otherwise be redistributed electronically.

    A form allowing access to any MPEC is at the bottom of this page.


    Read MPEC 2014-H28 Read MPEC 2014-H30


    M.P.E.C. 2014-H29                                Issued 2014 Apr. 25, 04:23 UT
    
         The Minor Planet Electronic Circulars contain information on unusual
             minor planets and routine data on comets.  They are published
       on behalf of Commission 20 of the International Astronomical Union by the
              Minor Planet Center, Smithsonian Astrophysical Observatory,
                              Cambridge, MA 02138, U.S.A.
    
                 Prepared using the Tamkin Foundation Computer Network
    
                                  MPC@CFA.HARVARD.EDU
                URL https://www.minorplanetcenter.net/    ISSN 1523-6714
    
                                       2014 HJ4
    
    Observations:
         K14H04J* C2014 04 23.37363 13 10 30.43 +05 38 00.5          20.6 VqEH029G96
         K14H04J  C2014 04 23.37987 13 10 29.81 +05 37 19.6          20.4 VqEH029G96
         K14H04J  C2014 04 23.38613 13 10 29.24 +05 36 37.5          20.3 VqEH029G96
         K14H04J  C2014 04 23.92269 13 09 50.71 +04 37 24.4          20.0 VoEH029033
         K14H04J  C2014 04 23.92867 13 09 50.16 +04 36 45.4          20.0 VoEH029033
         K14H04J KC2014 04 23.94059 13 09 49.20 +04 35 30.2                tEH029204
         K14H04J KC2014 04 23.95414 13 09 47.90 +04 34 00.7                tEH029204
         K14H04J  C2014 04 23.96367 13 09 47.00 +04 32 55.1          19.6 VoEH029033
         K14H04J KC2014 04 23.96794 13 09 46.63 +04 32 30.1          20.2 RtEH029204
         K14H04J  C2014 04 23.96965 13 09 46.45 +04 32 16.3          19.6 VoEH029033
         K14H04J KC2014 04 24.14511 13 09 36.39 +04 13 14.8          20.3 RoEH029291
         K14H04J KC2014 04 24.14615 13 09 36.29 +04 13 07.9          20.2 RoEH029291
         K14H04J KC2014 04 24.14719 13 09 36.19 +04 13 01.4          20.4 RoEH029291
         K14H04J KC2014 04 25.13735 13 08 23.08 +02 24 44.4          20.8 RqEH029H36
         K14H04J KC2014 04 25.14913 13 08 21.93 +02 23 26.1          20.2 RqEH029H36
         K14H04J KC2014 04 25.16982 13 08 20.13 +02 21 11.8          20.2 RqEH029H36
    
    Observer details:
    033 Karl Schwarzschild Observatory, Tautenburg.  Observer B. Stecklum.  1.34-m
        f/4 Schmidt + CCD.
    204 Schiaparelli Observatory.  Observer L. Buzzi.  0.60-m f/4.64 reflector
        + CCD.
    291 LPL/Spacewatch II.  Observer R. A. Mastaler.  1.8-m f/2.7 reflector + CCD.
    G96 Mt. Lemmon Survey.  Observers R. A. Kowalski, R. J. Sanders.  Measurers
        E. J. Christensen, A. R. Gibbs, A. D. Grauer, R. E. Hill, J. A. Johnson,
        R. A. Kowalski, S. M. Larson, R. J. Sanders, F. C. Shelly.  1.5-m
        reflector + CCD.
    H36 Sandlot Observatory, Scranton.  Observer G. Hug.  0.56-m reflector + CCD.
    
    Orbital elements:
    2014 HJ4                                                 Earth MOID = 0.1384 AU
    Epoch 2014 May 23.0 TT = JDT 2456800.5                  MPC
    M  24.72161              (2000.0)            P               Q
    n   0.49448881     Peri.  154.76272     -0.97221181     +0.18420977
    a   1.5837929      Node    36.78646     -0.23385727     -0.79247107
    e   0.2887322      Incl.   13.96023     +0.01072227     -0.58142614
    P   1.99           H   23.3           G   0.15           U   8
    Residuals in seconds of arc
    140423 G96  0.3+  0.1-    140423 204  0.7-  0.5-    140424 291  0.0   0.0
    140423 G96  0.2-  0.3+    140423 033  0.4+  0.6+    140425 H36  0.8+  0.8+
    140423 G96  0.1+  0.3-    140423 204  0.5-  0.2-    140425 H36  0.8-  0.7-
    140423 033  0.2-  0.1-    140423 033  0.3+  1.2+    140425 H36  0.0   0.0
    140423 033  0.2-  0.3+    140424 291  0.2+  0.2-
    140423 204  0.1-  0.3-    140424 291  0.1+  0.3-
    
    Ephemeris:
    2014 HJ4                 a,e,i = 1.58, 0.29, 14                  q = 1.1265
    Date    TT    R. A. (2000) Decl.     Delta      r     Elong.  Phase     V
    2014 03 26    13 51 59.7 +43 55 24   0.1909  1.1286   129.5    43.0    21.6
    ...
    2014 04 10    13 30 46.6 +28 25 39   0.1526  1.1281   143.6    31.8    20.8
    ...
    2014 04 18    13 18 04.9 +15 25 30   0.1436  1.1340   153.2    23.5    20.5
    ...
    2014 04 24    13 09 44.9 +04 29 44   0.1448  1.1411   158.0    19.3    20.4
    2014 04 25    13 08 31.3 +02 40 22   0.1457  1.1425   158.3    19.0    20.4
    2014 04 26    13 07 21.1 +00 51 56   0.1468  1.1440   158.4    18.9    20.4
    ...
    2014 05 02    13 01 40.2 -09 22 07   0.1579  1.1541   156.3    20.5    20.6
    ...
    2014 05 10    12 58 08.8 -20 33 21   0.1825  1.1707   149.6    25.9    21.1
    ...
    2014 05 25    13 04 02.3 -33 49 08   0.2505  1.2104   137.9    34.1    22.1
    
    A. U. Tomatic                (C) Copyright 2014 MPC           M.P.E.C. 2014-H29
    

    Read MPEC 2014-H28 Read MPEC 2014-H30


    MPEC number:

    Enter an MPEC number in one of the following forms:

    • 1997-B01 (the full form)
    • J97B01 (the packed version of the full form)
    • B01 (the abbreviated form)